Aérodrome :
LOGIN :

S'inscrire | Disclaimer

   EN    FR    IT 

 










Légende :    VFR   VFR Marginal   IFR   IFR Intensif   IFR Très Intensif
Visi : 
Plafond : 
>= 8 km
>= 3000ft
5 à 8 km
1000 à 3000 ft
1500m à 5 km
500 à 1000 ft
800 à 1500m
200 à 500 ft
< 800m
< 200 ft
Symboles :   Orages  Brouillard  Fortes neiges  Fortes précipitations  Vent > 20 kt
SIGMETs :   Divers  Orages  Givrage  Turbulence  Onde Orograph.  Cendres Volcan.






- Altitude de l'aérodrome : 239 ft
- Code IATA : VRN


LIPX - Villafranca Int. Verona

DERNIER METAR :
  • 281050Z 30003KT 230V010 CAVOK 14/M14 Q1016

METARs EXPIRÉS :
  • 281020Z 35008KT 310V050 CAVOK 14/M12 Q1016
  • 280950Z 35007KT CAVOK 13/M11 Q1015
  • 280920Z VRB06KT CAVOK 12/M09 Q1015
  • 280850Z 29005KT CAVOK 12/M06 Q1015
  • 280820Z 31004KT 280V340 CAVOK 09/M04 Q1014

TAF TAF LIPX
Valide du 28 à 09h jusqu'au 28 à 18h UTC


280800Z 2809/2818 VRB05KT CAVOK



MET'MAP, la Météo Aéronautique d'un coup d'oeil ! - Copyright ORBIFLY Décembre 2007 - Disclaimer

ORBIFLY MET'MAP TEAM :

Programmation & Développement : Alexandra Zaïnal
Sur une idée originale de : Baudouin d'Aumeries
Assistance à la programmation : Marc-Olivier Méhu
Soutien technique & logistique : Manuel Goepfert

Contact : metmap@orbifly.com




SOURCES & CREDITS :

   NOAA